{"data":{"norad_id":48454,"intl_designator":"2021-040AC","name":"STARLINK-2654","alt_names":[],"object_type":"PAYLOAD","status":"ACTIVE","operator":null,"country":"US","launch_date":"2021-05-09","launch_site_code":"AFETR","launch_vehicle":null,"mission":null,"orbit_class":"UNKNOWN","rcs_meters":null,"size_class":null,"mass_kg":null,"dimensions":null,"purposes":["comms"],"wikipedia_slug":null,"has_3d_model":false,"image_url":null,"decayed_at":null,"tle_current":{"epoch":"2026-05-25T02:49:21.434016Z","epoch_age_seconds":65209,"freshness":"FRESH","line1":"1 48454U 21040AC  26145.11760919  .00000710  00000+0  34634-4 0  9995","line2":"2 48454  53.1578 182.6212 0001324  86.2142 273.9011 15.31715934278392","mean_motion":15.31715934,"eccentricity":0.0001324,"inclination_deg":53.1578,"raan_deg":182.6212,"arg_perigee_deg":86.2142,"mean_anomaly_deg":273.9011,"bstar":3.4634e-5,"rev_number":27839,"period_min":94.012209968954,"perigee_km":469.78571218711,"apogee_km":471.59928223798,"semimajor_km":6848.8294972125,"source":"CELESTRAK","updated_at":"2026-05-25T13:38:16.718149Z"}}}